Weather History for Arad, Romania

Change the Weather History Date:

Tuesday, July 30, 2013

  Actual Average Record
Temperature  
Mean Temperature 73 °F -  
Max Temperature 80 °F 80 °F 98 °F (2005)
Min Temperature 64 °F 57 °F 55 °F (2003)
Cooling Degree Days 8    
Growing Degree Days 23 (Base 50)    
Moisture  
Dew Point 65 °F    
Average Humidity 71    
Maximum Humidity 100    
Minimum Humidity 32    
Precipitation  
Precipitation 0.24 in - - ()
Sea Level Pressure  
Sea Level Pressure 29.95 in    
Wind  
Wind Speed 5 mph ()    
Max Wind Speed 13 mph    
Max Gust Speed -    
Visibility 7.9 miles    
Events Rain , Thunderstorm    
Averages and records for this station are not official NWS values.
T = Trace of Precipitation, MM = Missing Value Source: Averaged Metar Reports

Daily Weather History Graph

Daily Weather History Graph

Search for Another Location

Airport:

Trip Planner

Search our weather history database for the weather conditions in past years. The results will help you decide how hot, cold, wet, or windy it might be!

Date:

Astronomy

Jul. 30, 2013 Rise Set
Actual Time 6:14 AM EEST 9:07 PM EEST
Civil Twilight 5:39 AM EEST 9:42 PM EEST
Nautical Twilight 4:54 AM EEST 10:26 PM EEST
Astronomical Twilight 4:01 AM EEST 11:19 PM EEST
Moon 12:25 AM EEST (7/30) 3:07 PM EEST (7/30)
Length of Visible Light 16h 03m
Length of Day
14h 53m
Last Quarter, 44% of the Moon is Illuminated
Jul 30
Last Quarter
Aug 7
New
Aug 14
First Quarter
Aug 21
Full
Aug 28
Last Quarter

Hourly Weather History & Observations

Time (EEST) Temp. Heat Index Dew Point Humidity Pressure Visibility Wind Dir Wind Speed Gust Speed Precip Events Conditions
12:00 AM 77 °F - 64 °F 54% 29.87 in 12 mi SE 2.2 mph - -  
12:00 AM 80.6 °F 82.7 °F 66.2 °F 61% 29.86 in 6.2 mi SW 2.3 mph - N/A   Unknown
1:00 AM 78.8 °F - 68.0 °F 69% 29.86 in 6.2 mi SSE 4.6 mph - N/A   Unknown
2:00 AM 73 °F - 62 °F 61% 29.86 in 12 mi SE 2.2 mph - -  
2:00 AM 77.0 °F - 66.2 °F 69% 29.86 in 6.2 mi Calm Calm - N/A   Unknown
3:00 AM 76 °F - 63 °F 55% 29.90 in 12 mi West 2.2 mph - -  
3:00 AM 77.0 °F - 64.4 °F 65% 29.89 in 6.2 mi WNW 4.6 mph - N/A   Unknown
4:00 AM 77 °F - 62 °F 51% 29.91 in 12 mi WSW 2.2 mph - -  
4:00 AM 73.4 °F - 64.4 °F 73% 29.92 in 6.2 mi WNW 6.9 mph - N/A   Unknown
5:00 AM 78 °F - 58 °F 39% 29.91 in 12 mi WNW 2.2 mph - -  
5:00 AM 78.8 °F - 57.2 °F 47% 29.92 in 6.2 mi WNW 9.2 mph - N/A   Scattered Clouds
6:00 AM 79 °F - 54 °F 32% 29.93 in 12 mi NW 4.5 mph - -  
6:00 AM 80.6 °F 80.5 °F 55.4 °F 42% 29.98 in 6.2 mi WNW 9.2 mph - N/A   Partly Cloudy
6:30 AM 71.6 °F - 66.2 °F 83% 30.01 in 6.2 mi WNW 11.5 mph - N/A Rain , Thunderstorm Light Thunderstorms and Rain
7:00 AM 76 °F - 59 °F 46% 29.99 in 12 mi West 6.7 mph - - Thunderstorm Thunderstorm
7:00 AM 69.8 °F - 66.2 °F 88% 29.98 in 6.2 mi NW 6.9 mph - N/A Thunderstorm Thunderstorm
7:30 AM 69.8 °F - 68.0 °F 94% 29.98 in 6.2 mi NW 4.6 mph - N/A   Partly Cloudy
8:00 AM 71 °F - 64 °F 72% 30.00 in 12 mi North 2.2 mph - - Thunderstorm Light Thunderstorm
8:00 AM 69.8 °F - 66.2 °F 88% 30.01 in 5.0 mi North 6.9 mph - N/A Rain Rain Showers
8:30 AM 68.0 °F - 68.0 °F 100% 29.98 in 6.2 mi North 5.8 mph - N/A Rain , Thunderstorm Light Thunderstorms and Rain
9:00 AM 70 °F - 64 °F 75% 29.99 in 12 mi North 4.5 mph - - Rain Light Rain Showers
9:00 AM 69.8 °F - 69.8 °F 100% 30.01 in 6.2 mi ESE 5.8 mph - N/A Rain , Thunderstorm Light Thunderstorms and Rain
9:30 AM 68.0 °F - 68.0 °F 100% 30.01 in 3.1 mi SE 8.1 mph - N/A Rain , Thunderstorm Thunderstorms and Rain
10:00 AM 67 °F - 63 °F 84% 30.03 in 2 mi South 4.5 mph - - Rain , Thunderstorm Thunderstorms and Rain
10:00 AM 66.2 °F - 66.2 °F 100% 29.98 in 3.7 mi SE 9.2 mph - N/A Rain , Thunderstorm Thunderstorms and Rain
10:30 AM 68.0 °F - 68.0 °F 100% 29.95 in 6.2 mi ESE 5.8 mph - N/A Rain Light Rain Showers
11:00 AM 66 °F - 64 °F 92% 29.95 in 6 mi ESE 8.9 mph - - Rain Light Rain Showers
11:00 AM 68.0 °F - 68.0 °F 100% 29.98 in 6.2 mi SW 4.6 mph - N/A   Scattered Clouds
11:30 AM 71.6 °F - 71.6 °F 100% 29.98 in 6.2 mi South 8.1 mph - N/A   Partly Cloudy
12:00 PM 72 °F - 67 °F 79% 29.99 in 6 mi South 4.5 mph - -   Partly Cloudy
12:00 PM 73.4 °F - 71.6 °F 94% 29.98 in 6.2 mi SSW 11.5 mph - N/A   Partly Cloudy
12:30 PM 75.2 °F - 73.4 °F 94% 30.01 in 6.2 mi SSW 12.7 mph - N/A   Partly Cloudy
1:00 PM 72 °F - 65 °F 72% 29.99 in 12 mi South 6.7 mph - -   Overcast
1:00 PM 73.4 °F - 71.6 °F 94% 29.98 in 6.2 mi SW 10.4 mph - N/A   Mostly Cloudy
1:30 PM - - - N/A% 0.00 in - North - - N/A   Unknown
2:00 PM 74 °F - 66 °F 68% 29.98 in 12 mi SW 4.5 mph - -   Partly Cloudy
2:00 PM 75.2 °F - 68.0 °F 78% 29.98 in - West 11.5 mph - N/A   Unknown
2:30 PM 77.0 °F - 68.0 °F 74% 29.98 in 6.2 mi WSW 8.1 mph - N/A   Mostly Cloudy
3:00 PM 78 °F - 65 °F 56% 29.96 in 12 mi SW 4.5 mph - -   Partly Cloudy
3:00 PM 78.8 °F - 69.8 °F 74% 29.95 in 6.2 mi West 6.9 mph - N/A   Scattered Clouds
3:30 PM 78.8 °F - 69.8 °F 74% 29.95 in 6.2 mi West 10.4 mph - N/A   Scattered Clouds
4:00 PM 80 °F - 65 °F 52% 29.95 in 12 mi West 2.2 mph - -   Mostly Cloudy
4:00 PM 80.6 °F 83.9 °F 69.8 °F 70% 29.95 in 6.2 mi West 10.4 mph - N/A   Scattered Clouds
4:30 PM 78.8 °F - 68.0 °F 69% 29.95 in 6.2 mi WNW 9.2 mph - N/A   Scattered Clouds
5:00 PM 79 °F - 65 °F 54% 29.95 in 12 mi West 4.5 mph - -   Mostly Cloudy
5:00 PM 78.8 °F - 68.0 °F 69% 29.95 in 6.2 mi NW 6.9 mph - N/A   Scattered Clouds
5:30 PM 80.6 °F 83.2 °F 68.0 °F 65% 29.95 in 6.2 mi West 6.9 mph - N/A   Scattered Clouds
6:00 PM 80 °F - 65 °F 50% 29.94 in 12 mi West 2.2 mph - -   Mostly Cloudy
6:00 PM 78.8 °F - 66.2 °F 65% 29.95 in 6.2 mi West 10.4 mph - N/A   Scattered Clouds
6:30 PM 78.8 °F - 66.2 °F 65% 29.95 in 6.2 mi West 5.8 mph - N/A   Scattered Clouds
7:00 PM 80.6 °F 82.7 °F 66.2 °F 61% 29.95 in 6.2 mi West 9.2 mph - N/A   Scattered Clouds
7:30 PM 78.8 °F - 62.6 °F 57% 29.95 in 6.2 mi WNW 11.5 mph - N/A   Scattered Clouds
8:00 PM 80 °F - 61 °F 42% 29.94 in 12 mi West 4.5 mph - -   Scattered Clouds
8:00 PM 78.8 °F - 64.4 °F 61% 29.95 in 6.2 mi West 9.2 mph - N/A   Partly Cloudy
8:30 PM 77.0 °F - 64.4 °F 65% 29.95 in - West 9.2 mph - N/A   Clear
9:00 PM 73.4 °F - 64.4 °F 73% 29.95 in 6.2 mi West 8.1 mph - N/A   Partly Cloudy
9:30 PM 69.8 °F - 64.4 °F 83% 29.95 in - West 6.9 mph - N/A   Clear
10:00 PM 74 °F - 60 °F 52% 29.95 in 12 mi West 2.2 mph - -   Scattered Clouds
10:00 PM 69.8 °F - 64.4 °F 83% 29.95 in - West 5.8 mph - N/A   Clear
11:00 PM 72 °F - 59 °F 55% 29.97 in 12 mi West 2.2 mph - -  
11:00 PM 64.4 °F - 64.4 °F 100% 29.98 in 6.2 mi West 6.9 mph - N/A   Unknown